sat.trackr.live / text

‹ back to catalog

STARLINK-32293

NORAD 61526 · 2024-183T

PAYLOAD ACTIVE UNKNOWN

§ Identity

Operator
Country
US
Launch date
2024-10-15
Launch site
AFETR
Launch vehicle
Mass (kg)
RCS (m²)

Purposes: comms

External: N2YO · Heavens-Above · Gunter

§ Orbital elements

Epoch: 2026-05-25T03:32:00.849120Z

Period
94.11 min
Inclination
53.1592°
Eccentricity
0.0001210
Mean motion
15.30195623 rev/d
Perigee alt
474.4 km
Apogee alt
476.1 km
Semi-major
6,853.4 km
B*
4.7467e-5
RAAN
147.6377°
Arg perigee
78.6951°
Mean anomaly
281.4185°
Rev number
9,135

§ Raw data

STARLINK-322931 61526U 24183T   26145.14723205  .00001047  00000+0  47467-4 0  99932 61526  53.1592 147.6377 0001210  78.6951 281.4185 15.30195623 91354

JSON: /api/v1/satellites/61526 · /tle

For live sub-satellite position, see the globe view (requires WebGL).

§ Visibility from observer

Set your observer location to see the next 7 days of passes ≥ 10°. The values pass through the URL so the page stays shareable.

No JS? Fill the form by hand. The geolocation button needs JavaScript.